Theta_e
295 295 296 297 297 296 297 297 298 301 302 303 305 307 304 302 300 298 294 295 296 294 290 291 292 293 291 289 289 285 288 283 279 284 284 283 280 281 281 283 283 283 279 280 273 276 282 285 284 284 283 282 281 279
294 294 295 296 296 297 296 296 296 297 299 302 302 306 304 302 300 298 292 294 295 290 288 286 285 287 289 290 289 288 288 284 288 287 285 281 280 277 280 284 286 286 284 283 282 284 283 281 278 276 275 278 279 277
293 294 294 295 295 296 296 296 295 294 296 299 301 303 305 302 301 298 291 292 293 287 288 288 287 286 289 289 287 289 287 289 289 288 287 282 282 283 283 283 282 282 277 283 282 282 281 279 277 277 277 277 276 273
293 293 294 294 295 295 296 296 296 294 295 295 297 299 301 303 301 297 291 292 293 290 290 285 284 284 286 287 288 289 288 287 287 286 283 283 284 285 285 285 285 284 282 280 282 284 281 278 277 276 277 274 273 271
293 293 293 294 294 295 295 295 296 296 296 295 294 297 298 300 299 294 291 293 293 293 286 284 284 284 285 285 286 287 288 287 286 286 283 286 286 284 282 282 281 282 284 284 283 282 280 279 275 274 273 271 270 269
292 292 293 293 294 294 294 294 294 295 295 295 295 294 296 296 292 292 291 290 292 289 287 286 281 282 285 286 286 286 287 286 286 286 285 283 281 284 277 276 283 282 279 280 279 277 275 275 270 270 270 269 268 267
292 292 292 293 293 294 294 293 293 293 295 294 293 294 294 296 295 294 293 291 291 290 284 283 283 281 280 282 280 283 283 281 283 281 281 282 282 278 273 277 282 278 275 274 274 274 275 273 272 268 268 267 265 264
292 292 293 293 293 294 294 293 293 294 294 293 293 293 294 292 292 291 290 291 292 289 287 284 281 283 280 283 282 278 282 278 277 275 274 277 276 271 279 277 275 274 273 272 272 270 270 268 267 266 265 264 262 262
291 292 292 293 293 293 294 294 293 292 294 293 294 293 291 291 290 289 289 289 291 288 285 284 284 283 279 280 279 278 280 280 274 275 275 276 269 279 280 275 273 270 272 271 266 261 260 263 263 261 262 261 259 260
291 292 292 293 292 293 293 293 292 293 293 293 292 289 289 288 289 290 291 290 287 284 283 284 274 279 281 280 280 282 279 278 276 275 273 271 274 276 273 275 275 270 268 265 265 263 258 259 258 257 258 262 262 261
291 292 292 293 293 293 293 293 293 293 292 291 282 286 288 290 289 288 287 290 286 283 278 281 276 281 279 281 281 281 280 277 277 275 274 268 273 277 269 269 270 268 267 265 266 265 265 263 259 257 257 262 262 262
291 292 292 293 293 293 293 293 292 291 291 289 286 287 287 287 286 286 284 282 286 283 271 278 280 279 280 281 282 279 280 276 276 267 273 272 277 268 269 269 268 267 266 264 266 264 264 264 263 262 263 263 263 263
292 292 292 293 293 293 293 293 290 290 288 289 286 286 287 285 288 287 286 282 274 270 272 275 277 278 278 279 278 280 277 275 266 271 275 275 270 266 264 263 259 263 265 264 263 264 264 263 263 263 263 263 263 263
292 292 292 293 293 293 292 290 290 290 290 284 288 286 284 287 286 283 276 276 272 273 277 276 276 281 277 278 278 280 270 270 270 272 276 273 269 268 264 262 261 259 261 261 262 262 263 263 263 263 263 263 263 262
292 292 293 293 293 292 290 290 290 288 277 278 279 278 271 268 261 264 264 268 271 280 278 277 277 277 276 276 270 270 271 272 274 276 274 267 263 265 263 261 260 259 259 259 262 262 262 263 262 263 264 263 262 262
291 290 291 292 292 291 290 289 286 279 272 269 268 272 267 267 269 268 272 272 270 274 276 278 278 279 276 275 271 274 275 275 276 269 263 259 261 259 259 258 262 263 262 262 263 263 263 262 262 263 263 263 262 262
288 287 286 290 291 289 288 285 277 273 273 270 268 266 267 269 268 267 268 269 271 273 282 280 281 279 270 271 273 270 275 271 264 261 257 258 260 258 258 261 262 263 262 262 262 262 262 262 262 261 260 264 263 262
288 285 284 283 287 287 281 277 271 272 271 266 270 268 268 267 270 269 269 270 273 275 275 276 272 274 277 277 272 266 261 260 255 256 257 256 260 262 263 262 263 262 262 262 262 262 262 262 261 261 262 262 261 261
288 288 285 283 283 281 276 274 273 271 268 268 270 270 268 268 269 269 269 269 269 271 274 271 271 266 265 260 260 258 255 255 258 259 257 262 263 263 262 262 262 262 262 262 262 262 263 263 262 262 262 261 260 261
288 286 286 285 284 276 275 272 274 274 273 271 270 270 269 270 268 267 267 266 267 265 262 262 259 257 257 257 255 256 254 255 254 257 257 257 262 262 262 262 263 263 262 262 262 261 262 262 262 262 262 261 260 260
288 282 283 282 275 271 268 270 270 270 270 270 265 268 269 265 263 262 261 260 260 258 259 256 256 255 257 257 258 258 258 260 254 254 255 256 261 262 262 262 262 262 261 261 260 261 261 260 262 261 260 261 260 260
281 281 280 278 271 268 265 264 268 264 267 262 263 261 261 262 259 259 256 259 257 256 255 256 256 253 252 252 257 258 258 259 260 260 261 260 255 259 260 261 261 260 260 260 260 259 261 262 261 260 260 260 259 259
279 279 274 273 272 271 267 265 268 265 272 266 262 265 262 259 258 258 259 256 256 258 258 257 257 257 256 258 259 259 259 260 259 259 259 259 259 260 259 260 260 258 257 259 261 260 260 260 259 259 259 258 258 258
276 263 265 265 268 267 260 265 260 262 262 264 262 264 261 258 258 260 258 255 257 259 257 257 257 255 258 259 257 260 259 259 259 259 259 258 257 258 259 259 259 258 259 259 259 259 259 259 259 258 258 257 258 257
273 262 262 265 259 266 265 263 263 265 261 257 261 261 260 255 260 258 258 257 256 254 253 256 256 255 251 250 257 258 258 258 258 256 256 257 257 256 257 258 258 259 260 258 258 259 258 258 258 257 257 257 257 257
262 255 260 254 260 264 258 263 261 262 257 259 258 256 255 259 261 257 257 257 255 254 256 256 256 254 253 257 256 256 257 257 256 255 256 258 258 256 255 254 254 256 258 258 258 257 257 257 257 257 257 258 257 256
263 257 253 252 253 254 258 256 256 258 256 258 256 258 258 259 257 257 257 258 257 258 257 257 256 256 256 256 257 257 257 257 256 256 257 256 256 257 255 254 254 258 257 257 257 257 256 256 256 255 255 255 255 255
251 251 260 254 253 251 253 252 252 252 253 253 253 256 257 257 258 257 258 259 258 258 258 257 258 257 257 257 257 257 257 257 256 257 259 259 260 260 259 259 258 258 257 257 257 256 256 256 256 256 255 255 255 255
253 249 251 254 252 251 251 251 251 250 250 249 253 254 255 255 257 259 259 259 259 258 258 257 258 257 258 257 257 257 256 256 255 252 252 255 256 258 258 257 257 257 257 257 257 256 256 255 256 256 256 256 256 255
253 248 253 250 254 254 252 250 251 250 250 249 251 255 256 256 259 259 260 260 259 259 258 257 257 256 255 255 255 255 256 256 256 255 254 254 255 256 256 256 256 256 256 256 256 257 257 256 256 256 255 255 254 254
251 250 253 253 256 253 251 252 252 251 250 251 251 252 252 251 259 260 260 260 259 259 258 256 256 256 255 255 255 254 254 256 256 256 255 255 255 255 255 256 256 255 255 255 255 255 254 254 253 253 253 253 253 253
252 252 254 258 255 252 252 253 255 257 256 255 256 255 256 253 255 259 260 260 260 259 258 256 256 256 256 256 255 255 256 255 256 256 256 255 255 255 255 255 255 255 255 255 255 255 255 255 255 255 255 255 255 255
256 255 254 257 257 257 255 257 258 258 257 256 255 249 249 252 258 259 261 260 259 259 257 257 257 256 256 256 256 256 257 256 256 255 256 255 255 255 256 256 256 256 256 256 256 256 256 256 256 256 256 256 256 256
Wind_Speed
14 13 13 13 12 11 11 11 10 11 16 18 16 59 75 76 69 44 23 34 19 3 2 2 2 7 5 5 6 7 5 3 3 2 4 4 3 6 3 4 7 8 7 4 3 2 9 5 2 6 2 3 3 2
16 16 15 15 15 15 12 9 8 11 11 16 11 18 69 72 68 42 15 28 18 5 3 7 11 9 5 6 7 9 3 6 6 4 1 3 2 2 4 3 3 1 7 5 9 7 2 0 4 2 4 2 1 2
16 16 17 16 15 15 15 14 10 5 7 13 15 6 52 64 63 45 30 37 19 4 3 4 3 6 9 12 12 5 1 5 3 2 4 3 3 3 4 5 2 3 3 2 3 3 5 4 3 4 4 3 4 4
16 16 17 16 15 15 14 15 14 10 8 8 13 12 12 27 57 45 32 34 21 4 4 1 5 6 3 7 9 3 8 7 8 3 3 3 3 3 3 2 3 4 7 6 3 3 7 2 4 4 5 6 3 5
18 19 17 16 15 16 16 16 15 15 15 13 9 10 11 8 54 32 27 25 21 7 4 4 7 8 8 7 9 11 15 6 2 3 2 2 2 4 2 2 2 5 6 5 5 6 4 5 6 6 5 1 3 4
15 16 19 19 18 17 17 17 17 17 17 15 15 11 12 29 41 30 2 4 18 20 5 4 1 4 17 19 19 15 8 4 2 3 2 2 0 3 3 3 5 4 3 3 6 4 3 6 7 5 3 2 2 4
14 18 17 18 18 18 17 17 18 19 21 21 16 16 16 36 35 5 6 18 28 19 4 4 3 1 4 6 4 3 9 3 3 2 2 2 2 3 3 4 5 7 7 7 8 8 3 3 4 4 2 0 1 5
15 16 18 18 20 19 18 18 19 22 22 20 18 19 27 22 17 10 16 39 28 14 4 5 2 3 1 2 3 3 2 2 5 2 2 2 2 3 3 5 5 7 8 5 6 5 5 8 6 5 2 1 0 3
17 17 18 21 21 20 20 20 21 23 24 22 20 28 20 4 2 11 24 18 15 8 5 3 8 5 4 2 2 2 1 3 1 2 0 2 1 5 8 8 10 9 9 10 6 5 4 4 5 3 4 1 2 3
17 19 19 23 23 23 22 22 24 29 31 28 18 5 2 4 41 26 4 2 3 2 3 3 2 4 5 3 2 3 1 2 2 3 2 2 4 5 5 8 12 12 9 12 6 2 1 3 5 4 6 6 8 10
19 20 22 25 25 24 24 26 31 33 26 6 3 2 12 26 6 2 2 2 2 3 2 2 3 7 1 4 3 1 3 2 3 4 4 3 4 5 7 7 9 14 17 12 6 5 7 7 6 5 6 9 10 12
23 24 24 25 24 25 26 31 37 15 8 9 15 10 7 2 3 4 2 2 1 5 1 4 4 3 3 3 3 1 3 2 4 3 3 4 4 2 7 9 9 14 15 12 10 10 10 10 11 10 10 12 12 12
23 23 24 24 26 27 28 32 23 33 32 10 5 3 1 0 3 6 6 1 3 3 5 4 4 4 3 2 4 3 4 3 2 2 4 5 0 4 6 6 6 12 12 10 10 11 11 11 11 12 12 12 12 15
23 24 25 26 27 29 34 34 31 19 7 3 2 4 1 3 1 0 2 4 3 5 11 5 3 3 2 3 3 5 2 3 3 1 6 3 7 10 7 5 7 6 11 12 12 12 12 12 12 11 12 12 12 17
26 25 26 27 29 36 36 27 19 13 8 4 3 2 2 1 2 3 3 1 0 9 6 5 4 3 2 5 2 5 2 3 6 5 3 3 4 10 8 5 6 6 10 12 12 13 13 11 11 12 11 12 14 16
28 24 18 23 27 30 32 24 12 7 5 4 7 3 1 2 2 2 2 3 3 1 2 3 4 4 2 4 4 6 8 7 4 3 2 2 4 4 4 4 11 12 13 12 12 11 9 10 11 11 13 15 16 17
20 7 18 25 29 28 29 13 7 6 4 5 3 1 1 1 1 1 2 3 5 2 3 3 4 3 3 3 1 4 4 2 3 1 0 3 5 4 8 10 10 10 10 11 11 10 10 8 10 13 17 17 15 14
32 29 27 30 44 29 8 11 5 5 5 2 2 3 1 2 2 3 3 3 2 2 2 2 5 3 4 5 3 2 1 1 2 2 2 2 5 8 9 9 8 8 9 9 9 9 10 10 12 18 17 16 18 20
39 26 13 13 13 10 4 5 5 4 2 1 1 1 2 1 2 2 2 3 1 3 4 3 5 2 1 1 1 2 2 0 2 1 0 3 4 5 6 4 4 6 8 10 10 12 12 13 17 18 18 19 21 21
29 16 9 13 9 6 5 3 5 4 2 1 1 2 2 2 2 1 5 6 3 3 7 5 2 1 0 2 1 1 1 2 2 2 2 3 3 2 3 3 6 7 10 12 14 14 15 17 16 14 13 16 17 20
14 7 8 8 6 11 4 2 3 2 3 3 1 1 1 2 3 4 5 4 5 3 3 2 1 2 7 3 3 3 5 6 1 2 2 1 3 3 6 9 11 11 11 12 13 17 15 18 17 14 14 17 17 20
6 5 4 5 5 5 4 6 4 1 3 1 3 3 3 3 3 3 2 6 3 1 1 1 2 2 2 2 5 3 3 4 4 4 3 4 2 4 7 11 9 12 16 20 20 21 22 18 16 14 15 18 17 20
8 3 6 9 6 6 1 4 5 5 4 0 2 4 3 3 1 2 3 2 2 1 2 3 9 9 5 3 4 5 7 7 7 7 9 12 14 15 16 19 17 17 16 22 16 16 18 16 16 18 19 20 19 19
4 7 6 5 6 2 1 4 2 3 3 3 3 2 3 1 3 3 4 2 1 3 7 12 13 5 3 4 5 6 10 10 10 13 13 13 14 15 16 17 18 20 21 24 21 21 20 20 17 16 15 16 17 21
7 10 6 7 4 5 6 5 5 5 3 3 4 3 3 3 3 4 2 2 2 2 2 12 10 8 0 3 7 13 15 12 13 12 17 15 17 20 20 17 18 18 16 17 19 17 15 13 13 15 16 18 21 25
9 5 5 3 4 4 2 4 4 2 3 4 2 2 2 3 5 2 2 2 2 2 4 5 5 3 3 7 8 11 17 20 17 15 19 12 11 14 14 10 12 15 7 7 8 12 16 18 21 23 26 26 25 25
6 4 3 1 2 2 3 2 2 4 5 3 3 4 3 5 3 2 1 4 2 7 13 14 11 10 12 18 21 21 20 17 14 18 24 26 24 19 18 16 14 13 13 15 18 20 24 26 28 27 27 27 24 24
2 4 5 5 5 3 4 4 4 3 2 3 1 5 4 2 2 1 1 1 7 12 15 11 8 10 14 18 19 19 20 19 19 21 14 8 5 8 7 7 13 18 21 22 22 23 24 25 26 27 28 30 31 27
3 3 2 6 5 5 5 3 1 1 1 1 3 2 2 1 2 3 2 4 7 11 17 22 21 21 22 21 19 16 18 17 15 5 4 4 6 10 11 22 25 23 22 23 22 22 22 23 26 28 30 30 32 32
4 2 4 4 5 4 2 1 1 1 0 1 1 2 2 1 2 1 2 5 9 12 14 19 19 20 19 19 19 21 20 12 7 8 4 6 12 25 29 28 27 26 25 25 27 29 27 26 28 28 28 30 28 27
1 3 4 4 3 1 2 2 1 1 1 2 1 3 2 2 2 2 6 7 9 12 18 19 22 21 18 17 17 17 16 11 12 21 23 27 30 30 29 28 29 28 28 28 28 28 29 28 26 26 26 27 28 27
3 3 3 4 1 2 1 1 1 2 3 3 3 2 1 3 2 3 7 11 12 15 23 19 21 24 26 26 25 23 23 24 25 27 29 28 29 29 29 28 28 27 28 28 27 26 26 26 27 26 27 28 28 28
2 2 3 3 2 2 2 2 2 2 3 3 3 1 0 1 1 3 14 11 11 21 25 27 28 30 29 24 26 23 20 25 30 30 28 28 27 28 28 28 27 27 27 27 27 27 28 28 28 28 29 30 31 30
Wind_Direction
203 202 194 184 176 176 142 150 94 137 180 179 210 194 187 185 182 175 176 179 166 111 57 51 125 149 127 149 144 170 107 322 49 119 130 197 128 213 113 165 174 162 151 196 96 120 276 177 38 160 169 102 70 54
205 199 196 189 182 175 169 157 163 98 110 179 188 205 189 185 178 170 137 170 169 80 97 98 84 91 86 113 121 182 131 162 168 119 139 99 98 112 153 215 145 201 185 182 183 210 164 10 149 165 135 142 360 328
203 199 194 188 183 174 173 174 175 172 105 141 169 161 189 180 177 176 151 150 139 101 68 84 98 100 122 124 138 123 290 174 155 166 147 157 149 128 161 231 135 267 165 189 96 251 155 140 98 138 148 164 91 70
196 201 192 188 185 180 173 173 159 145 160 125 171 184 160 184 179 173 159 166 136 110 111 109 108 87 111 162 154 132 139 104 110 85 102 132 140 185 189 161 165 184 135 176 263 116 88 81 118 133 107 89 39 340
198 193 186 187 186 182 177 173 165 163 152 135 134 177 207 185 163 159 149 157 162 125 121 115 107 49 82 137 132 130 129 115 94 85 93 161 136 111 33 68 245 187 179 173 218 173 147 128 133 124 125 73 331 334
202 193 183 179 179 183 179 173 165 158 144 133 132 133 162 141 144 126 87 183 171 120 112 127 25 21 90 91 85 72 65 64 75 107 124 89 35 105 134 196 246 180 97 139 174 129 108 113 115 97 111 45 351 337
191 189 193 176 176 177 173 170 161 155 148 140 129 126 136 163 168 169 170 166 160 119 96 109 95 65 62 71 43 39 44 67 83 107 76 127 89 101 121 205 212 141 124 116 116 119 111 173 166 101 108 14 332 317
190 184 184 181 177 176 173 166 163 154 151 145 142 119 140 123 111 78 134 148 137 93 82 109 99 119 209 95 96 353 79 57 21 148 21 107 24 69 245 226 122 115 115 121 121 72 97 119 130 130 149 217 353 291
183 184 184 180 175 173 170 162 163 157 150 140 142 126 117 92 94 115 127 118 115 90 118 131 150 165 141 90 105 53 105 75 294 83 202 88 254 216 219 174 168 174 176 164 114 85 100 151 166 173 187 239 213 255
183 180 176 175 174 171 166 160 150 140 135 129 123 79 87 108 128 119 68 65 60 42 48 96 94 135 138 149 93 112 26 125 130 243 85 131 252 262 207 187 178 166 148 133 113 283 161 238 197 196 202 217 237 258
179 173 171 172 173 168 162 155 148 144 136 125 85 76 125 133 99 55 99 117 123 74 47 106 110 126 269 111 116 307 149 115 133 246 145 270 271 234 157 144 144 146 154 159 140 120 158 158 171 193 228 236 246 262
173 172 172 171 168 163 160 154 144 128 135 134 109 111 139 86 74 96 80 112 92 155 243 111 129 112 95 100 110 176 105 109 185 154 91 261 244 161 153 142 131 143 156 160 171 178 191 200 209 213 233 248 255 270
170 168 166 165 163 159 157 156 134 121 117 105 69 107 145 206 140 157 155 152 109 175 177 161 131 127 106 86 81 128 116 179 85 91 222 228 135 174 153 130 113 144 151 164 179 196 204 213 213 222 237 256 271 277
159 160 156 153 154 152 142 137 132 126 90 76 109 120 258 171 158 359 158 148 195 130 138 121 108 122 131 88 127 113 237 108 77 197 233 233 193 173 154 138 125 169 180 184 204 203 210 219 233 244 252 266 273 277
140 145 147 150 149 149 138 135 125 90 59 62 17 127 36 46 272 243 245 307 261 140 129 111 79 92 100 111 94 119 92 180 204 225 227 226 163 153 155 146 150 159 186 204 210 212 220 226 240 263 265 276 278 281
109 107 115 140 149 142 137 132 87 65 61 58 33 49 323 63 11 349 9 83 354 120 101 69 103 81 82 115 94 206 135 204 229 211 226 106 127 132 138 149 181 185 194 214 218 225 234 242 253 272 285 285 289 289
102 92 126 166 149 132 126 102 61 48 58 42 15 356 326 19 86 327 32 351 320 37 90 103 94 154 102 73 190 195 191 220 198 42 102 139 151 167 162 155 172 185 204 225 237 243 253 268 271 277 283 297 303 294
115 119 106 111 136 130 62 45 79 67 70 13 50 321 18 352 18 30 353 337 339 73 77 122 124 106 153 154 239 244 177 4 50 136 148 104 126 141 160 166 187 207 226 241 250 262 261 264 270 274 287 301 298 293
150 136 100 109 132 94 84 42 52 88 50 46 225 323 82 99 73 359 326 330 14 41 94 41 64 76 118 356 24 343 3 135 174 248 148 100 124 138 157 172 212 236 256 264 262 259 270 277 276 284 287 292 284 295
132 117 84 48 62 79 75 40 53 89 116 132 43 25 69 44 318 21 31 20 41 45 41 40 51 270 161 283 219 237 255 275 106 51 354 9 66 150 195 243 278 291 281 277 277 277 282 286 281 290 293 286 279 286
127 76 71 75 74 72 86 104 66 94 137 90 326 26 56 30 37 21 12 348 59 36 53 13 15 292 325 292 308 311 34 37 94 135 180 352 41 343 303 292 290 282 273 280 281 289 284 273 293 300 295 287 285 290
86 111 77 56 85 71 83 14 108 172 72 162 40 37 34 33 8 2 312 45 55 1 11 314 295 284 326 335 336 345 357 21 36 34 16 336 360 337 312 307 296 280 278 279 281 278 285 290 296 296 298 296 293 293
120 85 62 31 77 48 320 2 69 5 89 330 30 50 16 21 275 7 73 79 116 303 307 304 316 308 275 343 13 47 28 19 15 358 334 318 305 295 289 290 290 279 281 288 294 289 288 295 290 296 298 294 292 293
63 50 40 46 39 98 2 31 50 67 63 49 68 63 2 310 318 58 76 46 264 12 8 359 8 357 14 23 22 17 8 347 337 327 327 321 306 300 308 302 297 289 280 286 290 290 292 295 304 302 300 295 295 295
65 1 30 9 6 48 43 23 7 49 60 4 76 17 339 6 69 58 82 308 325 316 296 0 12 14 145 273 315 336 358 351 330 318 314 318 308 303 305 309 307 302 300 287 283 291 298 306 308 306 304 298 295 295
66 326 49 336 351 65 339 63 35 92 104 57 25 272 18 72 59 36 328 294 296 304 336 345 338 335 323 337 316 322 332 339 329 299 300 312 300 285 285 295 306 310 317 308 300 299 302 303 302 302 300 299 297 295
64 350 338 24 124 99 55 36 57 66 59 50 338 9 55 64 52 288 298 0 330 334 347 347 331 309 296 307 322 327 330 328 311 293 300 297 293 286 270 261 269 300 308 304 301 298 296 298 299 299 297 298 292 292
123 22 66 332 54 21 91 57 42 46 334 325 54 37 96 105 184 238 204 305 346 350 354 10 15 348 334 332 331 329 329 332 323 315 308 303 309 305 284 287 304 310 305 302 299 298 296 295 295 296 295 292 295 295
44 333 74 38 43 43 43 71 74 266 228 107 100 86 131 202 171 173 227 321 342 353 1 359 356 353 351 347 345 337 331 327 321 331 317 300 312 320 314 314 314 313 312 308 306 303 297 293 293 293 293 291 293 294
350 19 81 58 58 29 294 178 344 286 236 175 184 106 67 35 155 190 299 318 332 337 342 345 342 343 331 327 325 327 340 335 295 262 264 286 294 307 311 313 314 314 313 310 308 309 309 304 303 300 295 295 292 291
325 36 71 55 85 268 247 307 310 298 359 29 32 92 167 252 228 197 18 353 345 350 346 342 339 345 334 328 326 322 319 333 315 315 312 310 309 308 311 313 313 313 309 305 301 297 296 294 288 286 285 283 283 281
26 55 111 98 93 281 335 19 17 63 27 44 8 19 40 46 39 296 2 350 343 348 350 341 330 325 329 324 322 316 311 310 315 320 318 314 311 310 309 306 304 303 301 298 292 288 286 284 285 285 285 285 285 284
63 57 74 102 102 83 353 62 53 80 45 35 3 358 312 153 126 301 349 339 343 343 340 335 333 327 327 327 327 325 321 321 321 320 318 316 311 307 305 303 303 301 296 292 291 290 289 288 286 286 286 286 286 287